Location: Maiden
(35.5760°N, 81.2120°W)
Time: 04:05:53
(UTC-04:00)

Daily predictions for brighter satellites

Satellite Brightness Start Highest point End
(mag) Time Altitude Azimuth Time Altitude Azimuth Time Altitude Azimuth
SL-16 R/B 3.4 00:00:03 10° NNW 00:03:35 39° NW 00:03:35 39° NW
Cosmos 2219 Rocket 4.3 00:08:00 10° N 00:10:40 18° NE 00:10:40 18° NE
Terra 4.3 00:23:24 18° NW 00:23:24 18° NW 00:24:58 10° NW
Lacrosse 5 4.0 00:16:02 10° NW 00:17:55 23° NW 00:17:55 23° NW
Cosmos 2322 Rocket 3.7 00:20:48 10° NNW 00:23:50 32° NW 00:23:50 32° NW
Cosmos 2360 Rocket 3.8 00:33:21 10° NNW 00:36:09 31° NNW 00:36:09 31° NNW
Cosmos 2237 Rocket 4.5 01:01:56 10° NNE 01:04:28 17° NE 01:04:28 17° NE
Cosmos 2333 Rocket 4.0 01:01:46 10° NNW 01:04:29 28° N 01:04:29 28° N
Cosmos 2227 Rocket 4.4 01:40:48 20° NE 01:40:48 20° NE 01:42:31 10° NE
Cosmos 2219 Rocket 4.4 01:50:47 10° NNW 01:52:22 19° NW 01:52:22 19° NW
SL-16 R/B 4.3 02:04:18 24° ENE 02:04:29 24° ENE 02:09:18 10° NNE
SL-16 R/B 4.1 02:13:05 10° N 02:17:07 24° NE 02:17:07 24° NE
Cosmos 2297 Rocket 3.8 02:33:45 30° N 02:33:45 30° N 02:36:42 10° N
Resurs 1-4 Rocket 3.7 02:40:56 10° NNE 02:43:43 31° NE 02:43:43 31° NE
Cosmos 2237 Rocket 4.2 02:44:36 10° NNW 02:46:15 20° NNW 02:46:15 20° NNW
USA 229 DEB 4.0 03:05:14 59° NE 03:05:14 59° NE 03:10:40 10° NE
USA 229 4.0 03:05:20 59° NE 03:05:20 59° NE 03:10:44 10° NE
Cosmos 1607 4.5 02:58:35 10° NNW 03:04:12 58° NNE 03:04:12 58° NNE
SJ 16-02 3.7 03:15:40 19° N 03:15:40 19° N 03:17:05 10° N
NOSS 3-1 (A) 4.0 03:16:54 46° ENE 03:16:54 46° ENE 03:21:15 10° NE
Cosmos 2227 Rocket 4.0 03:22:37 21° NW 03:22:37 21° NW 03:25:49 10° N
Cosmos 2098 Rocket 4.4 03:18:20 10° N 03:23:50 55° E 03:23:56 55° E
ADEOS II 3.0 03:20:09 10° NNE 03:24:15 44° ENE 03:24:15 44° ENE
ATLAS 3B CENTAUR R/B 3.9 03:09:08 10° W 03:28:06 61° S 03:36:27 10° ESE
CZ-2D R/B 3.2 03:34:32 10° N 03:38:18 37° NNW 03:38:18 37° NNW
Cosmos 2227 4.4 03:40:33 68° ENE 03:40:33 68° ENE 03:45:42 10° NNE
Cosmos 2292 Rocket 4.4 03:39:58 10° N 03:46:30 75° NW 03:46:30 75° NW
Cosmos 2266 Rocket 3.9 03:40:49 10° N 03:47:09 87° E 03:47:13 87° ESE
SL-16 R/B 3.3 03:49:24 40° WNW 03:49:24 40° WNW 03:53:45 10° NNW
USA 215 3.1 03:42:25 10° NE 03:49:00 86° NW 03:49:32 77° WSW
IRS-1C 4.2 03:49:50 10° NNE 03:55:06 69° E 03:55:06 69° E
BREEZE-M DEB (TANK) 4.2 03:56:38 44° ESE 03:56:38 44° ESE 04:04:20 10° NE
Cosmos 1937 Rocket 4.3 03:57:59 43° NW 03:57:59 43° NW 04:02:08 10° N
SL-16 R/B 3.7 03:56:38 10° NW 03:58:56 23° NW 03:58:56 23° NW
Cosmos 1953 3.5 04:04:38 42° NNE 04:04:38 42° NNE 04:07:24 10° NNE
Cosmos 372 Rocket 3.9 04:06:37 83° N 04:06:37 83° N 04:11:39 10° NNE
Cosmos 2263 Rocket 2.1 04:06:34 72° NW 04:06:34 72° NW 04:12:00 10° NNE
Cosmos 2150 Rocket 4.0 04:15:34 67° SSE 04:16:03 72° ESE 04:21:15 10° NNE
ARIANE 5 R/B 2.4 04:12:25 10° NNE 04:17:41 85° ESE 04:18:17 71° S
Meteor 2-21 4.4 04:12:06 10° N 04:18:11 83° E 04:20:33 40° SSE
Cosmos 2084 3.6 04:21:56 72° E 04:21:56 72° E 04:26:05 10° NE
Resurs 1-4 Rocket 4.0 04:22:21 10° NNW 04:24:48 15° NW 04:24:48 15° NW
Cosmos 1726 3.7 04:27:27 26° NNW 04:27:27 26° NNW 04:29:19 10° N
ATLAS CENTAUR R/B 1.5 04:27:16 71° E 04:27:16 71° E 04:31:06 10° NE
H-2A R/B (2) 3.6 04:30:27 12° SE 04:30:27 12° SE 04:30:50 10° ESE
OAO 2 Rocket 4.0 04:28:54 40° SSE 04:28:57 40° SSE 04:33:52 10° E
ERS-1 4.3 04:24:21 10° N 04:29:18 72° WNW 04:29:44 67° WSW
Cosmos 1844 Rocket 4.0 04:28:05 19° SSE 04:31:19 34° ESE 04:36:16 10° NE
IRS-P3 4.5 04:28:52 10° N 04:33:57 46° WNW 04:34:22 45° W
MSX 4.3 04:31:09 10° NNE 04:36:50 58° E 04:40:24 23° S
Cosmos 1125 Rocket 3.5 04:37:48 43° S 04:39:31 76° ESE 04:44:46 10° NNE
Cosmos 1606 Rocket 4.1 04:38:58 31° SSE 04:40:50 56° E 04:45:14 10° NNE
Cosmos 1603 3.6 04:36:28 10° NNW 04:42:12 77° WSW 04:47:52 10° SSE
Cosmos 1602 Rocket 3.5 04:40:02 10° NNW 04:44:16 60° W 04:44:16 60° W
Atlas Centaur 2 3.2 04:42:55 36° SSW 04:45:03 45° SSE 04:52:35 10° E
Hubble Space Telescope 2.8 04:49:11 17° SSE 04:49:11 17° SSE 04:51:23 10° ESE
IDEFIX/ARIANE 42P 2.5 04:43:43 10° N 04:48:55 75° WNW 04:50:50 40° SSW
SeaSat 1 3.2 04:46:45 10° NE 04:51:31 47° ESE 04:54:35 21° S
Cosmos 724 4.4 04:47:52 10° NW 04:53:47 55° WSW 04:59:44 10° S
Cosmos 1726 Rocket 3.8 04:54:31 24° S 04:57:04 67° E 05:01:31 10° NNE
CZ-2D R/B 3.8 04:56:14 10° N 05:00:01 42° WNW 05:00:18 41° W
SL-08 R/B 3.9 05:00:35 37° WSW 05:01:10 38° W 05:05:47 10° NNW
ADEOS II 3.7 05:01:05 10° NNW 05:04:30 18° WNW 05:05:11 17° WNW
Cosmos 1943 3.2 04:59:14 10° NNW 05:04:44 58° WSW 05:10:13 10° S
Cosmos 2285 Rocket 4.3 05:02:13 31° WSW 05:04:51 48° WNW 05:10:56 10° N
Meteor 2-8 Rocket 4.4 05:02:15 24° SSW 05:06:06 69° W 05:12:13 10° N
PSLV R/B 4.1 05:03:10 10° NNE 05:07:29 56° E 05:11:14 13° S
Cosmos 1908 3.9 05:08:15 35° W 05:08:31 36° W 05:12:09 10° NNW
COSMOS 2441 4.3 05:04:14 10° N 05:09:03 80° WNW 05:12:06 23° SSW
PAYLOAD A 4.4 05:06:24 10° NNE 05:11:40 66° E 05:16:42 10° S
NOSS 8 (H) 4.4 05:12:07 46° WSW 05:12:45 56° WNW 05:15:45 10° NNE
Cosmos 2228 3.1 05:12:12 31° SW 05:14:03 56° W 05:18:23 10° N
CZ-2C R/B 3.0 05:10:31 10° N 05:14:11 46° WNW 05:15:13 36° WSW
Cosmos 1386 Rocket 4.5 05:10:20 10° N 05:16:22 80° E 05:22:23 10° S
Cosmos 1553 Rocket 4.2 05:16:51 23° SW 05:20:25 47° W 05:26:16 10° N
OAO 3 Rocket 3.2 05:18:50 22° W 05:22:05 84° S 05:27:02 10° E
CZ-4C R/B 2.9 05:22:38 23° SSW 05:24:22 52° W 05:27:36 10° NNW
USA 281 3.4 05:18:57 10° NNE 05:25:31 73° ESE 05:32:03 10° SSW
Aureole 3 4.5 05:23:17 19° SSW 05:26:57 53° WNW 05:33:20 10° N
Cosmos 1048 Rocket 4.0 05:23:09 10° NNW 05:28:13 58° WSW 05:33:19 10° S
CZ-2C R/B 2.3 05:24:40 10° NNE 05:29:18 84° ESE 05:33:59 10° SSW
Cosmos 2058 Rocket 3.0 05:29:12 11° SSW 05:33:35 75° W 05:38:02 10° N
Cosmos 1758 Rocket 4.3 05:32:00 10° NNW 05:35:49 31° W 05:38:37 16° SW
Cosmos 1745 Rocket 4.0 05:30:38 10° NNW 05:36:49 64° W 05:42:54 10° S
Cosmos 1300 2.9 05:35:42 16° SSW 05:38:35 51° W 05:42:19 10° N
Cosmos 1844 3.7 05:35:29 12° SSW 05:40:50 73° WNW 05:46:38 10° NNE
H-2A R/B 2.6 05:40:01 10° SSW 05:43:47 34° W 05:47:32 10° NNW
OAO 1 Rocket 4.5 05:40:17 15° W 05:44:44 83° S 05:50:06 10° E
ATLAS 3B CENTAUR R/B 3.7 05:40:25 10° W 05:49:50 29° SW 05:54:44 10° SSE
Delta 2 Rocket 3.0 05:51:13 11° W 05:54:36 89° N 05:58:37 10° E
NOSS 2-2 (D) 3.6 05:53:03 14° SW 05:55:56 44° NW 05:59:29 10° NNE
NOSS 2-2 (E) 4.0 05:53:25 14° WSW 05:56:02 33° NW 05:59:28 10° NNE
USA 267 3.4 05:53:53 10° SE 06:00:27 85° NE 06:07:00 10° NW
ERS-2 3.2 05:58:08 10° SSW 06:01:07 24° W 06:04:07 10° NW
Cosmos 2278 Rocket 3.6 05:58:57 10° S 06:04:11 40° ESE 06:09:27 10° NE
Cosmos 1953 Rocket 4.5 06:01:20 10° NNW 06:05:12 29° W 06:09:03 10° SSW
ATLAS CENTAUR R/B 3.6 06:05:25 10° WNW 06:06:19 11° NW 06:07:12 10° NW
Cosmos 1689 Rocket 3.6 06:04:35 10° SSE 06:07:20 41° ENE 06:10:06 10° N
OAO 2 Rocket 3.5 06:08:17 10° WSW 06:13:35 79° S 06:18:47 10° E
Cosmos 1844 Rocket 3.7 06:10:23 10° WSW 06:15:09 29° WNW 06:19:57 10° N
Meteor 1-31 Rocket 2.7 06:11:33 10° N 06:15:25 83° W 06:19:13 10° SSW
Cosmos 1709 Rocket 4.1 06:11:06 10° NNW 06:17:05 54° W 06:22:59 10° SSW
